• In Latvia
  • List of Countries
  • For 7 days
  • Water Temperature
  • Satellite Maps
  • Weather Map
  • Weather Widgets
  • user-avatar
    Login

    Hourly Weather Lewis

    Today, 19 September, Wednesday

    Time Temperature Precipitation Wind Pressure Humidity
    00:00 +9°C° 0 mm 12 mps 732 mmHg 81%
    01:00 +9°C° 0.2 mm 13 mps 732 mmHg 79%
    02:00 +9°C° 0.2 mm 13 mps 732 mmHg 77%
    03:00 +9°C° 0.2 mm 13 mps 732 mmHg 75%
    04:00 +9°C° 0.1 mm 13 mps 732 mmHg 75%
    05:00 +9°C° 0.1 mm 13 mps 732 mmHg 76%
    06:00 +9°C° 0 mm 13 mps 732 mmHg 78%
    07:00 +8°C° 0.2 mm 11 mps 731 mmHg 80%
    08:00 +8°C° 0.2 mm 10 mps 729 mmHg 82%
    09:00 +8°C° 0.2 mm 9 mps 728 mmHg 84%
    10:00 +8°C° 1.3 mm 7 mps 727 mmHg 87%
    11:00 +8°C° 1.3 mm 6 mps 725 mmHg 90%
    12:00 +7°C° 1.3 mm 4 mps 724 mmHg 93%
    13:00 +8°C° 0.9 mm 7 mps 725 mmHg 87%
    14:00 +8°C° 0.9 mm 11 mps 726 mmHg 81%
    15:00 +8°C° 0.9 mm 14 mps 727 mmHg 75%
    16:00 +8°C° 0.2 mm 15 mps 728 mmHg 74%
    17:00 +7°C° 0.2 mm 16 mps 729 mmHg 73%
    18:00 +7°C° 0.2 mm 17 mps 730 mmHg 72%
    19:00 +7°C° 0.2 mm 17 mps 730 mmHg 72%
    20:00 +7°C° 0.2 mm 18 mps 730 mmHg 72%
    21:00 +7°C° 0.2 mm 18 mps 731 mmHg 72%
    22:00 +7°C° 0.5 mm 18 mps 731 mmHg 71%
    23:00 +7°C° 0.5 mm 19 mps 731 mmHg 70%

    Tomorrow, 20 September, Thursday

    Time Temperature Precipitation Wind Pressure Humidity
    00:00 +7°C° 0.5 mm 19 mps 732 mmHg 68%
    01:00 +7°C° 0.3 mm 19 mps 732 mmHg 68%
    02:00 +7°C° 0.3 mm 19 mps 733 mmHg 67%
    03:00 +7°C° 0.3 mm 19 mps 733 mmHg 66%
    04:00 +7°C° 0.7 mm 19 mps 733 mmHg 70%
    05:00 +7°C° 0.7 mm 18 mps 734 mmHg 73%
    06:00 +7°C° 0.7 mm 17 mps 734 mmHg 76%
    07:00 +8°C° 0.3 mm 15 mps 735 mmHg 78%
    08:00 +8°C° 0.3 mm 13 mps 735 mmHg 80%
    09:00 +8°C° 0.3 mm 12 mps 736 mmHg 82%
    10:00 +9°C° 0.1 mm 10 mps 737 mmHg 80%
    11:00 +10°C° 0.1 mm 9 mps 737 mmHg 79%
    12:00 +11°C° 0.1 mm 7 mps 738 mmHg 78%
    13:00 +11°C° 0.1 mm 6 mps 738 mmHg 78%
    14:00 +11°C° 0.1 mm 6 mps 738 mmHg 78%
    15:00 +12°C° 0.1 mm 5 mps 739 mmHg 78%
    16:00 +11°C° 0.2 mm 4 mps 738 mmHg 80%
    17:00 +10°C° 0.2 mm 3 mps 738 mmHg 82%
    18:00 +10°C° 0.2 mm 3 mps 737 mmHg 84%
    19:00 +10°C° 0.4 mm 3 mps 737 mmHg 86%
    20:00 +8°C° 0.4 mm 4 mps 737 mmHg 87%
    21:00 +8°C° 0.4 mm 4 mps 737 mmHg 89%
    22:00 +8°C° 1 mm 4 mps 736 mmHg 91%
    23:00 +7°C° 1 mm 4 mps 736 mmHg 92%

    Day after tomorrow, 21 September, Friday

    Time Temperature Precipitation Wind Pressure Humidity
    00:00 +7°C° 1 mm 4 mps 736 mmHg 94%
    01:00 +7°C° 0.6 mm 5 mps 735 mmHg 92%
    02:00 +7°C° 0.6 mm 5 mps 735 mmHg 91%
    03:00 +7°C° 0.6 mm 6 mps 735 mmHg 90%
    04:00 +6°C° 0.3 mm 7 mps 735 mmHg 88%
    05:00 +6°C° 0.3 mm 7 mps 735 mmHg 86%
    06:00 +7°C° 0.3 mm 8 mps 736 mmHg 84%
    07:00 +7°C° 0.1 mm 8 mps 736 mmHg 82%
    08:00 +7°C° 0.1 mm 8 mps 737 mmHg 81%
    09:00 +7°C° 0.1 mm 8 mps 737 mmHg 79%
    10:00 +9°C° 0.1 mm 8 mps 738 mmHg 76%
    11:00 +9°C° 0.1 mm 8 mps 739 mmHg 74%
    12:00 +9°C° 0.1 mm 7 mps 739 mmHg 71%
    13:00 +9°C° 0.3 mm 7 mps 740 mmHg 74%
    14:00 +9°C° 0.3 mm 7 mps 740 mmHg 76%
    15:00 +8°C° 0.3 mm 7 mps 741 mmHg 78%
    16:00 +7°C° 0.3 mm 8 mps 741 mmHg 78%
    17:00 +7°C° 0.3 mm 8 mps 741 mmHg 78%
    18:00 +6°C° 0.3 mm 9 mps 742 mmHg 78%
    19:00 +6°C° 0.1 mm 10 mps 742 mmHg 76%
    20:00 +6°C° 0.1 mm 11 mps 743 mmHg 74%
    21:00 +7°C° 0.1 mm 12 mps 743 mmHg 72%
    22:00 +7°C° 0.1 mm 12 mps 744 mmHg 71%
    23:00 +7°C° 0.1 mm 13 mps 744 mmHg 70%

    22 September, Saturday

    Time Temperature Precipitation Wind Pressure Humidity
    00:00 +7°C° 0.1 mm 13 mps 745 mmHg 70%
    01:00 +7°C° 0.1 mm 13 mps 745 mmHg 70%
    02:00 +7°C° 0.1 mm 12 mps 746 mmHg 70%
    03:00 +7°C° 0.1 mm 12 mps 747 mmHg 70%
    04:00 +6°C° 0.1 mm 11 mps 747 mmHg 71%
    05:00 +6°C° 0.1 mm 10 mps 748 mmHg 71%
    06:00 +6°C° 0.1 mm 10 mps 748 mmHg 72%
    07:00 +7°C° 0.1 mm 9 mps 749 mmHg 70%
    08:00 +7°C° 0.1 mm 9 mps 749 mmHg 69%
    09:00 +7°C° 0.1 mm 8 mps 750 mmHg 67%
    10:00 +9°C° 0.2 mm 8 mps 750 mmHg 66%
    11:00 +9°C° 0.2 mm 7 mps 751 mmHg 64%
    12:00 +9°C° 0.2 mm 7 mps 751 mmHg 63%
    13:00 +9°C° 0.1 mm 6 mps 751 mmHg 63%
    14:00 +9°C° 0.1 mm 6 mps 751 mmHg 63%
    15:00 +9°C° 0.1 mm 5 mps 751 mmHg 63%
    16:00 +8°C° 0.1 mm 5 mps 751 mmHg 64%
    17:00 +8°C° 0.1 mm 4 mps 751 mmHg 66%
    18:00 +8°C° 0.1 mm 3 mps 751 mmHg 68%
    19:00 +8°C° 0 mm 3 mps 752 mmHg 69%
    20:00 +8°C° 0 mm 2 mps 752 mmHg 70%
    21:00 +8°C° 0 mm 2 mps 752 mmHg 71%
    22:00 +7°C° 0.1 mm 3 mps 752 mmHg 73%
    23:00 +7°C° 0.1 mm 3 mps 751 mmHg 74%

    23 September, Sunday

    Time Temperature Precipitation Wind Pressure Humidity
    00:00 +6°C° 0.1 mm 4 mps 751 mmHg 75%
    01:00 +6°C° 0.1 mm 5 mps 751 mmHg 75%
    02:00 +5°C° 0.1 mm 6 mps 751 mmHg 75%
    03:00 +5°C° 0.1 mm 6 mps 751 mmHg 75%
    04:00 +5°C° 0 mm 7 mps 751 mmHg 74%
    05:00 +5°C° 0 mm 7 mps 751 mmHg 73%
    06:00 +5°C° 0 mm 8 mps 751 mmHg 72%
    07:00 +6°C° 0 mm 8 mps 752 mmHg 70%
    08:00 +6°C° 0 mm 8 mps 752 mmHg 68%
    09:00 +6°C° 0 mm 8 mps 752 mmHg 66%
    10:00 +6°C° 0 mm 9 mps 753 mmHg 63%
    11:00 +7°C° 0 mm 9 mps 753 mmHg 61%
    12:00 +7°C° 0 mm 9 mps 754 mmHg 58%
    13:00 +7°C° 0 mm 9 mps 754 mmHg 58%
    14:00 +7°C° 0 mm 9 mps 755 mmHg 58%
    15:00 +7°C° 0 mm 8 mps 755 mmHg 59%
    16:00 +6°C° 0 mm 8 mps 756 mmHg 61%
    17:00 +6°C° 0 mm 8 mps 757 mmHg 63%
    18:00 +5°C° 0 mm 7 mps 757 mmHg 65%
    19:00 +5°C° 0 mm 7 mps 758 mmHg 66%
    20:00 +5°C° 0 mm 6 mps 758 mmHg 67%
    21:00 +5°C° 0 mm 6 mps 759 mmHg 68%
    22:00 +5°C° 0 mm 6 mps 759 mmHg 67%
    23:00 +5°C° 0 mm 6 mps 759 mmHg 67%

    24 September, Monday

    Time Temperature Precipitation Wind Pressure Humidity
    00:00 +7°C° 0 mm 6 mps 759 mmHg 67%
    01:00 +6°C° 0.1 mm 7 mps 759 mmHg 67%
    02:00 +6°C° 0.1 mm 8 mps 759 mmHg 68%
    03:00 +6°C° 0.1 mm 8 mps 759 mmHg 68%
    04:00 +6°C° 0.1 mm 9 mps 759 mmHg 69%
    05:00 +6°C° 0.1 mm 9 mps 759 mmHg 69%
    06:00 +6°C° 0.1 mm 9 mps 760 mmHg 70%
    07:00 +7°C° 0.1 mm 9 mps 760 mmHg 69%
    08:00 +7°C° 0.1 mm 8 mps 760 mmHg 67%
    09:00 +9°C° 0.1 mm 8 mps 761 mmHg 66%
    10:00 +9°C° 0 mm 8 mps 761 mmHg 67%
    11:00 +9°C° 0 mm 8 mps 762 mmHg 68%
    12:00 +10°C° 0 mm 7 mps 762 mmHg 69%
    13:00 +10°C° 0.1 mm 8 mps 762 mmHg 69%
    14:00 +10°C° 0.1 mm 8 mps 762 mmHg 70%
    15:00 +10°C° 0.1 mm 8 mps 762 mmHg 70%
    16:00 +9°C° 0 mm 8 mps 762 mmHg 72%
    17:00 +9°C° 0 mm 8 mps 762 mmHg 74%
    18:00 +7°C° 0 mm 8 mps 761 mmHg 76%
    19:00 +7°C° 0 mm 9 mps 761 mmHg 76%
    20:00 +7°C° 0 mm 9 mps 761 mmHg 77%
    21:00 +7°C° 0 mm 10 mps 761 mmHg 77%
    22:00 +8°C° 0 mm 11 mps 760 mmHg 77%
    23:00 +8°C° 0 mm 12 mps 759 mmHg 77%
    Show more